| time (UTC) | temp C | wind direction | speed KPH | gust KPH | rain 1hr cm | rain 24hr cm | rain mn cm | humidity % | barometer mb |
| 20260508000145 | 9 | 234 | 8.0 | 9.7 | 0.00 | 0.00 | 0.00 | 99 | 1014.6 |
| 20260507235145 | 8 | 228 | 8.0 | 11.3 | 0.00 | 0.00 | 0.00 | 99 | 1014.6 |
| 20260507234205 | 9 | 219 | 8.0 | 11.3 | 0.00 | 0.00 | 0.00 | 98 | 1014.5 |
| 20260507233145 | 9 | 224 | 8.0 | 11.3 | 0.00 | 0.00 | 0.00 | 97 | 1014.5 |
| 20260507232145 | 9 | 226 | 8.0 | 9.7 | 0.00 | 0.00 | 0.00 | 96 | 1014.6 |
| 20260507231145 | 9 | 233 | 6.4 | 8.0 | 0.00 | 0.00 | 0.00 | 97 | 1014.6 |
| 20260507230145 | 9 | 222 | 6.4 | 8.0 | 0.00 | 0.00 | 0.00 | 96 | 1014.5 |
| 20260507225144 | 9 | 226 | 8.0 | 9.7 | 0.00 | 0.00 | 0.00 | 96 | 1014.5 |
| 20260507224145 | 9 | 233 | 6.4 | 9.7 | 0.00 | 0.00 | 0.00 | 95 | 1014.4 |
| 20260507223144 | 9 | 229 | 6.4 | 8.0 | 0.00 | 0.00 | 0.00 | 94 | 1014.4 |
| 20260507222205 | 9 | 221 | 6.4 | 9.7 | 0.00 | 0.00 | 0.00 | 93 | 1014.3 |
| 20260507221145 | 9 | 223 | 6.4 | 8.0 | 0.00 | 0.00 | 0.00 | 92 | 1014.3 |
| 20260507220144 | 10 | 216 | 6.4 | 8.0 | 0.00 | 0.00 | 0.00 | 91 | 1014.3 |
| 20260507215144 | 10 | 219 | 4.8 | 8.0 | 0.00 | 0.00 | 0.00 | 88 | 1014.3 |
| 20260507214149 | 10 | 226 | 4.8 | 6.4 | 0.00 | 0.00 | 0.00 | 87 | 1014.4 |
| 20260507213148 | 10 | 234 | 4.8 | 6.4 | 0.00 | 0.00 | 0.00 | 86 | 1014.3 |
| 20260507212148 | 10 | 234 | 6.4 | 8.0 | 0.00 | 0.00 | 0.00 | 86 | 1014.3 |
| 20260507211148 | 10 | 231 | 6.4 | 9.7 | 0.00 | 0.00 | 0.00 | 85 | 1014.2 |
| 20260507210208 | 10 | 255 | 4.8 | 8.0 | 0.00 | 0.00 | 0.00 | 85 | 1014.1 |
| 20260507205148 | 10 | 233 | 4.8 | 6.4 | 0.00 | 0.00 | 0.00 | 84 | 1014.0 |
| 20260507204148 | 11 | 221 | 6.4 | 8.0 | 0.00 | 0.00 | 0.00 | 83 | 1013.9 |
| 20260507203148 | 11 | 242 | 6.4 | 9.7 | 0.00 | 0.00 | 0.00 | 83 | 1013.8 |
| 20260507202148 | 11 | 234 | 6.4 | 9.7 | 0.00 | 0.00 | 0.00 | 82 | 1013.7 |
| 20260507201148 | 11 | 237 | 8.0 | 11.3 | 0.00 | 0.00 | 0.00 | 81 | 1013.7 |
| 20260507200148 | 11 | 233 | 8.0 | 12.9 | 0.00 | 0.00 | 0.00 | 79 | 1013.6 |
| 20260507195148 | 11 | 247 | 8.0 | 12.9 | 0.00 | 0.00 | 0.00 | 78 | 1013.6 |
| 20260507194148 | 11 | 238 | 9.7 | 16.1 | 0.00 | 0.00 | 0.00 | 77 | 1013.4 |
| 20260507193148 | 11 | 238 | 11.3 | 17.7 | 0.00 | 0.00 | 0.00 | 75 | 1013.4 |
| 20260507192148 | 11 | 241 | 14.5 | 19.3 | 0.00 | 0.00 | 0.00 | 74 | 1013.3 |
| 20260507191208 | 11 | 238 | 14.5 | 22.5 | 0.00 | 0.00 | 0.00 | 73 | 1013.2 |
| 20260507190147 | 12 | 240 | 17.7 | 24.1 | 0.00 | 0.00 | 0.00 | 71 | 1013.2 |
| 20260507185147 | 12 | 246 | 17.7 | 22.5 | 0.00 | 0.00 | 0.00 | 72 | 1013.2 |
| 20260507184147 | 12 | 236 | 17.7 | 27.4 | 0.00 | 0.00 | 0.00 | 69 | 1013.1 |
| 20260507183148 | 12 | 225 | 19.3 | 25.7 | 0.00 | 0.00 | 0.00 | 66 | 1013.1 |
| 20260507182150 | 12 | 228 | 22.5 | 33.8 | 0.00 | 0.00 | 0.00 | 67 | 1013.0 |
| 20260507181147 | 12 | 239 | 17.7 | 29.0 | 0.00 | 0.00 | 0.00 | 68 | 1013.0 |
| 20260507180147 | 12 | 240 | 20.9 | 30.6 | 0.00 | 0.00 | 0.00 | 68 | 1013.0 |
| 20260507175147 | 12 | 238 | 22.5 | 30.6 | 0.00 | 0.00 | 0.00 | 69 | 1012.9 |
| 20260507174207 | 12 | 234 | 24.1 | 30.6 | 0.00 | 0.00 | 0.00 | 69 | 1012.8 |
| 20260507173147 | 12 | 235 | 20.9 | 29.0 | 0.00 | 0.00 | 0.00 | 70 | 1012.9 |
| 20260507172147 | 12 | 242 | 24.1 | 33.8 | 0.00 | 0.00 | 0.00 | 70 | 1012.9 |
| 20260507171147 | 12 | 237 | 22.5 | 30.6 | 0.00 | 0.00 | 0.00 | 70 | 1013.0 |
| 20260507170147 | 12 | 224 | 22.5 | 32.2 | 0.00 | 0.00 | 0.00 | 69 | 1012.9 |
| 20260507165147 | 12 | 230 | 24.1 | 30.6 | 0.00 | 0.00 | 0.00 | 71 | 1012.9 |
| 20260507164207 | 12 | 242 | 19.3 | 29.0 | 0.00 | 0.00 | 0.00 | 73 | 1013.0 |
| 20260507163147 | 12 | 224 | 22.5 | 32.2 | 0.00 | 0.00 | 0.00 | 71 | 1012.8 |
| 20260507162207 | 12 | 232 | 20.9 | 32.2 | 0.00 | 0.00 | 0.00 | 70 | 1012.9 |
| 20260507161147 | 12 | 237 | 20.9 | 29.0 | 0.00 | 0.00 | 0.00 | 68 | 1012.9 |
| 20260507160147 | 12 | 240 | 22.5 | 29.0 | 0.00 | 0.00 | 0.00 | 68 | 1012.9 |
| 20260507155207 | 12 | 234 | 20.9 | 32.2 | 0.00 | 0.00 | 0.00 | 69 | 1012.9 |
| 20260507154147 | 12 | 248 | 22.5 | 32.2 | 0.00 | 0.00 | 0.00 | 69 | 1012.9 |
| 20260507153146 | 13 | 231 | 17.7 | 30.6 | 0.00 | 0.00 | 0.00 | 70 | 1012.8 |
| 20260507152147 | 12 | 227 | 24.1 | 37.0 | 0.00 | 0.00 | 0.00 | 68 | 1012.7 |
| 20260507151146 | 12 | 241 | 20.9 | 33.8 | 0.00 | 0.00 | 0.00 | 68 | 1012.8 |
| 20260507150147 | 12 | 237 | 24.1 | 29.0 | 0.00 | 0.00 | 0.00 | 67 | 1012.8 |
| 20260507145147 | 12 | 243 | 24.1 | 35.4 | 0.00 | 0.00 | 0.00 | 67 | 1012.8 |
| 20260507144146 | 13 | 247 | 22.5 | 32.2 | 0.00 | 0.00 | 0.00 | 64 | 1012.9 |
| 20260507143146 | 12 | 246 | 19.3 | 27.4 | 0.00 | 0.00 | 0.00 | 62 | 1013.0 |
| 20260507142146 | 12 | 238 | 19.3 | 29.0 | 0.00 | 0.00 | 0.00 | 62 | 1013.0 |
| 20260507141146 | 13 | 229 | 17.7 | 29.0 | 0.00 | 0.00 | 0.00 | 61 | 1013.0 |
| 20260507140146 | 13 | 224 | 22.5 | 33.8 | 0.00 | 0.00 | 0.00 | 58 | 1012.9 |
| 20260507135206 | 12 | 233 | 24.1 | 35.4 | 0.00 | 0.00 | 0.00 | 67 | 1012.8 |
| 20260507134146 | 12 | 228 | 22.5 | 32.2 | 0.00 | 0.00 | 0.00 | 66 | 1012.9 |
| 20260507133146 | 12 | 233 | 24.1 | 33.8 | 0.00 | 0.00 | 0.00 | 68 | 1012.9 |
| 20260507132146 | 12 | 224 | 22.5 | 30.6 | 0.00 | 0.00 | 0.00 | 68 | 1012.9 |
| 20260507131228 | 12 | 231 | 22.5 | 29.0 | 0.00 | 0.00 | 0.00 | 70 | 1013.0 |
| 20260507130146 | 12 | 239 | 20.9 | 32.2 | 0.00 | 0.00 | 0.00 | 71 | 1013.1 |
| 20260507125146 | 12 | 233 | 19.3 | 25.7 | 0.00 | 0.00 | 0.00 | 75 | 1013.2 |
| 20260507124146 | 12 | 232 | 20.9 | 32.2 | 0.00 | 0.00 | 0.00 | 75 | 1013.2 |
| 20260507123146 | 12 | 230 | 19.3 | 29.0 | 0.00 | 0.00 | 0.00 | 77 | 1013.2 |
| 20260507122146 | 12 | 226 | 20.9 | 30.6 | 0.00 | 0.00 | 0.00 | 75 | 1013.2 |
| 20260507121146 | 12 | 225 | 16.1 | 24.1 | 0.00 | 0.00 | 0.00 | 83 | 1013.2 |
| 20260507120146 | 12 | 209 | 17.7 | 24.1 | 0.00 | 0.00 | 0.00 | 85 | 1013.2 |
| 20260507115146 | 12 | 227 | 16.1 | 25.7 | 0.00 | 0.00 | 0.00 | 89 | 1013.3 |
| 20260507114145 | 12 | 218 | 22.5 | 32.2 | 0.00 | 0.00 | 0.00 | 88 | 1013.2 |
| 20260507113146 | 12 | 220 | 19.3 | 32.2 | 0.00 | 0.00 | 0.00 | 85 | 1013.1 |
| 20260507112145 | 12 | 224 | 16.1 | 29.0 | 0.00 | 0.00 | 0.00 | 82 | 1013.2 |
| 20260507111145 | 12 | 229 | 19.3 | 30.6 | 0.00 | 0.00 | 0.00 | 80 | 1013.2 |
| 20260507110226 | 12 | 219 | 19.3 | 30.6 | 0.00 | 0.00 | 0.00 | 79 | 1013.3 |
| 20260507105145 | 12 | 225 | 17.7 | 24.1 | 0.00 | 0.00 | 0.00 | 75 | 1013.3 |
| 20260507104145 | 12 | 196 | 12.9 | 24.1 | 0.00 | 0.00 | 0.00 | 62 | 1013.3 |
| 20260507103145 | 12 | 215 | 14.5 | 22.5 | 0.00 | 0.00 | 0.00 | 68 | 1013.3 |
| 20260507102145 | 12 | 210 | 16.1 | 24.1 | 0.00 | 0.00 | 0.00 | 63 | 1013.4 |
| 20260507101145 | 12 | 222 | 17.7 | 24.1 | 0.00 | 0.00 | 0.00 | 59 | 1013.4 |
| 20260507100145 | 12 | 215 | 16.1 | 22.5 | 0.00 | 0.00 | 0.00 | 62 | 1013.4 |
| 20260507095146 | 12 | 218 | 14.5 | 24.1 | 0.00 | 0.00 | 0.00 | 72 | 1013.3 |
| 20260507094145 | 12 | 214 | 11.3 | 20.9 | 0.00 | 0.00 | 0.00 | 71 | 1013.4 |
| 20260507093225 | 12 | 212 | 12.9 | 19.3 | 0.00 | 0.00 | 0.00 | 69 | 1013.5 |
| 20260507092145 | 12 | 196 | 8.0 | 14.5 | 0.00 | 0.00 | 0.00 | 77 | 1013.4 |
| 20260507091145 | 12 | 193 | 9.7 | 17.7 | 0.00 | 0.00 | 0.00 | 78 | 1013.5 |
| 20260507090145 | 12 | 202 | 12.9 | 17.7 | 0.00 | 0.00 | 0.00 | 78 | 1013.5 |
| 20260507085205 | 12 | 220 | 11.3 | 16.1 | 0.00 | 0.00 | 0.00 | 76 | 1013.5 |
| 20260507084145 | 12 | 217 | 11.3 | 20.9 | 0.00 | 0.00 | 0.00 | 78 | 1013.4 |
| 20260507083145 | 12 | 184 | 8.0 | 19.3 | 0.00 | 0.00 | 0.00 | 83 | 1013.4 |
| 20260507082145 | 12 | 154 | 8.0 | 12.9 | 0.00 | 0.00 | 0.00 | 85 | 1013.4 |
| 20260507081145 | 11 | 152 | 8.0 | 14.5 | 0.00 | 0.00 | 0.00 | 87 | 1013.4 |
| 20260507080145 | 11 | 152 | 9.7 | 16.1 | 0.00 | 0.00 | 0.00 | 88 | 1013.4 |
| 20260507075144 | 11 | 193 | 6.4 | 11.3 | 0.00 | 0.00 | 0.00 | 85 | 1013.4 |
| 20260507074145 | 11 | 182 | 6.4 | 12.9 | 0.00 | 0.00 | 0.00 | 87 | 1013.4 |
| 20260507073145 | 11 | 205 | 8.0 | 12.9 | 0.00 | 0.00 | 0.00 | 88 | 1013.5 |
| 20260507072144 | 10 | 196 | 6.4 | 11.3 | 0.00 | 0.00 | 0.00 | 91 | 1013.5 |
| 20260507071145 | 10 | 196 | 8.0 | 12.9 | 0.00 | 0.00 | 0.00 | 91 | 1013.4 |
| 20260507070144 | 10 | 199 | 6.4 | 11.3 | 0.00 | 0.00 | 0.00 | 92 | 1013.4 |
| 20260507065144 | 10 | 195 | 6.4 | 12.9 | 0.00 | 0.00 | 0.00 | 93 | 1013.4 |
| 20260507064144 | 10 | 190 | 4.8 | 9.7 | 0.00 | 0.00 | 0.00 | 94 | 1013.4 |
| 20260507063148 | 10 | 195 | 6.4 | 9.7 | 0.00 | 0.00 | 0.00 | 95 | 1013.5 |
| 20260507062148 | 10 | 193 | 4.8 | 9.7 | 0.00 | 0.00 | 0.00 | 98 | 1013.5 |
| 20260507061148 | 9 | 194 | 4.8 | 9.7 | 0.00 | 0.00 | 0.00 | 100 | 1013.5 |
| 20260507060148 | 8 | 194 | 4.8 | 11.3 | 0.00 | 0.00 | 0.00 | 100 | 1013.4 |
| 20260507055148 | 8 | 204 | 3.2 | 8.0 | 0.00 | 0.00 | 0.00 | 100 | 1013.4 |
| 20260507054148 | 7 | 206 | 1.6 | 3.2 | 0.00 | 0.00 | 0.00 | 100 | 1013.5 |
| 20260507053148 | 7 | 218 | 1.6 | 1.6 | 0.00 | 0.00 | 0.00 | 100 | 1013.4 |
| 20260507052148 | 8 | 199 | 1.6 | 3.2 | 0.00 | 0.00 | 0.00 | 100 | 1013.4 |
| 20260507051148 | 8 | 262 | 1.6 | 3.2 | 0.00 | 0.00 | 0.00 | 100 | 1013.3 |
| 20260507050148 | 8 | 238 | 3.2 | 6.4 | 0.00 | 0.00 | 0.00 | 100 | 1013.4 |
| 20260507045134 | 8 | 247 | 3.2 | 4.8 | 0.00 | 0.00 | 0.00 | 100 | 1013.3 |
| 20260507044133 | 8 | 248 | 3.2 | 4.8 | 0.00 | 0.00 | 0.00 | 100 | 1013.2 |
| 20260507043153 | 8 | 220 | 4.8 | 6.4 | 0.00 | 0.00 | 0.00 | 100 | 1013.2 |
| 20260507042134 | 8 | 220 | 4.8 | 8.0 | 0.00 | 0.00 | 0.00 | 100 | 1013.2 |
| 20260507041134 | 8 | 222 | 6.4 | 8.0 | 0.00 | 0.00 | 0.00 | 100 | 1013.3 |
| 20260507040135 | 8 | 216 | 6.4 | 9.7 | 0.00 | 0.00 | 0.00 | 100 | 1013.2 |
| 20260507035134 | 8 | 222 | 8.0 | 11.3 | 0.00 | 0.00 | 0.00 | 100 | 1013.3 |
| 20260507034134 | 8 | 225 | 8.0 | 11.3 | 0.00 | 0.00 | 0.00 | 100 | 1013.3 |
| 20260507033133 | 8 | 229 | 8.0 | 9.7 | 0.00 | 0.00 | 0.00 | 100 | 1013.3 |
| 20260507032154 | 8 | 222 | 8.0 | 11.3 | 0.00 | 0.00 | 0.00 | 100 | 1013.3 |
| 20260507031153 | 8 | 223 | 8.0 | 9.7 | 0.00 | 0.00 | 0.00 | 99 | 1013.3 |
| 20260507030133 | 8 | 215 | 8.0 | 9.7 | 0.00 | 0.00 | 0.00 | 99 | 1013.3 |
| 20260507025214 | 8 | 225 | 8.0 | 9.7 | 0.00 | 0.00 | 0.00 | 99 | 1013.3 |
| 20260507023153 | 8 | 228 | 8.0 | 9.7 | 0.00 | 0.00 | 0.00 | 98 | 1013.4 |
| 20260507022133 | 8 | 228 | 8.0 | 9.7 | 0.00 | 0.00 | 0.00 | 97 | 1013.4 |
| 20260507021133 | 8 | 235 | 6.4 | 8.0 | 0.00 | 0.00 | 0.00 | 96 | 1013.4 |
| 20260507020133 | 9 | 242 | 6.4 | 9.7 | 0.00 | 0.00 | 0.00 | 95 | 1013.4 |
| 20260507015153 | 9 | 250 | 6.4 | 8.0 | 0.00 | 0.00 | 0.00 | 95 | 1013.4 |
| 20260507014153 | 10 | 227 | 6.4 | 8.0 | 0.00 | 0.00 | 0.00 | 95 | 1013.6 |
| 20260507013137 | 10 | 220 | 6.4 | 8.0 | 0.00 | 0.00 | 0.00 | 96 | 1013.6 |
| 20260507012137 | 9 | 203 | 8.0 | 11.3 | 0.00 | 0.00 | 0.00 | 95 | 1013.6 |
| 20260507011137 | 9 | 219 | 3.2 | 4.8 | 0.00 | 0.00 | 0.00 | 95 | 1013.7 |
| 20260507010137 | 9 | 223 | 3.2 | 6.4 | 0.00 | 0.00 | 0.00 | 96 | 1013.7 |
| 20260507005137 | 9 | 232 | 3.2 | 4.8 | 0.00 | 0.00 | 0.00 | 97 | 1013.7 |
| 20260507004136 | 9 | 194 | 3.2 | 6.4 | 0.00 | 0.00 | 0.00 | 99 | 1013.8 |
| 20260507003136 | 9 | 166 | 3.2 | 4.8 | 0.00 | 0.00 | 0.00 | 99 | 1013.8 |
| 20260507002137 | 9 | 161 | 4.8 | 6.4 | 0.00 | 0.00 | 0.00 | 97 | 1013.9 |
| 20260507001136 | 10 | 189 | 3.2 | 4.8 | 0.00 | 0.00 | 0.00 | 92 | 1014.0 |